[[{"header":{"parameterUnit":"m.s-1","parameterCategory":1,"la1":30.2991,"la2":30.254,"lo1":-89.0895,"lo2":-89.0444,"dy":0.0017,"dx":0.0017,"nx":28,"ny":28,"refTime":"2024-07-08T09:00:00:Z","depth":0,"parameterNumber":2,"parameterNumberName":"U-component_of_WINDS"},"data":[0,0,0,0,0,0,0,0,0,0,0,0,0,0,0,0,0,0,0,0,0,0,0,0,0,0,0,0,0,0,0,0,0,0,0,0,0,0,0,0,0,0,0,0,0,0,0,0,0,0,0,0,0,0,0,0,0,0,5.458,5.4582,0,5.4794,5.4796,5.4798,5.4725,5.472,5.4716,5.4711,5.4935,5.4945,5.4956,0,0,0,0,0,0,0,0,0,0,0,0,0,5.4111,5.412,5.458,5.4582,5.4585,5.4793,5.4796,5.4799,5.4726,5.472,5.4714,5.4709,5.4932,5.4944,5.4957,0,0,0,0,0,0,0,0,0,0,0,0,0,5.4319,5.4123,5.4579,5.4573,5.4575,5.4793,5.4796,5.48,5.4727,5.472,5.4713,5.4706,5.4928,5.4943,5.4958,5.5196,0,0,5.5006,5.5013,0,0,0,0,0,0,0,0,5.4307,5.4336,5.4572,5.4574,5.4576,5.4725,5.4713,5.4933,5.4729,5.467,5.4711,5.4703,5.4872,5.4891,5.4947,5.5206,5.5216,5.5007,5.5017,5.5023,5.5028,0,0,0,0,0,0,0,5.4293,5.4327,5.4664,5.4575,5.4578,5.4561,5.4583,5.4754,5.4808,5.4674,5.4669,5.4695,5.4872,5.4932,5.4952,5.5219,5.5007,5.5021,5.503,5.5036,5.5683,5.569,0,0,0,0,0,0,5.4277,5.4315,5.4658,5.4671,5.4421,5.4575,5.46,5.4685,5.4806,5.4817,5.4701,5.4691,5.4909,5.4934,5.4959,5.5244,5.5023,5.5038,5.5047,5.5675,5.5685,5.5693,0,0,0,0,0,0,5.4267,5.4308,5.4649,5.4492,5.4534,5.4591,5.4687,5.4693,5.4753,5.4826,5.4836,5.4753,5.4905,5.4938,5.5137,5.5251,5.5045,5.5059,5.5666,5.5678,5.5689,5.5817,0,0,0,0,0,0,5.4254,5.4305,5.4395,5.4494,5.4542,5.4822,5.4694,5.4702,5.478,5.4769,5.4877,5.4889,5.4902,5.5114,5.5152,5.5269,5.5071,5.5656,5.5671,5.5685,5.5803,5.5832,5.5856,0,0,0,0,0,5.4237,5.4424,5.44,5.4442,5.4656,5.4829,5.4857,5.4866,5.4789,5.4881,5.4927,5.4885,5.5232,5.5135,5.5178,5.5301,5.5649,5.5667,5.5684,5.5791,5.5826,5.5856,0,0,0,0,0,0,5.4339,5.4437,5.4411,5.4636,5.4724,5.4816,5.4932,5.4904,5.5017,5.5002,5.5011,5.5036,5.5241,5.5291,5.5181,5.5536,5.5429,5.5456,5.5496,5.553,5.5556,5.554,5.5084,0,0,0,0,0,5.4387,5.4518,5.4597,5.4787,5.4833,5.4875,5.4951,5.495,5.5043,5.5081,5.5142,5.5235,5.5364,5.545,5.5574,5.581,5.5832,5.5915,5.5942,5.5963,5.5987,5.6114,5.6151,5.5751,5.5751,5.5751,0,0,5.4489,5.4558,5.4641,5.481,5.4878,5.5014,5.4907,5.5056,5.5157,5.5104,5.5295,5.5343,5.5448,5.5666,5.5765,5.5714,5.6102,5.5986,5.6003,5.6014,5.6136,5.6174,5.6207,5.5763,5.5761,5.5759,0,0,5.4743,5.4809,5.4974,5.5044,5.5149,5.5175,5.5215,5.5311,5.534,5.5532,5.5494,5.5615,5.5839,5.5914,5.5982,5.6263,5.6229,5.6303,5.6443,5.6567,5.6599,5.6627,5.6726,5.6762,5.6326,5.6327,5.6327,0,5.4857,5.5059,5.5063,5.5215,5.529,5.5245,5.5412,5.5481,5.5622,5.5675,5.5615,5.5893,5.5961,5.6195,5.6263,5.632,5.6366,5.6291,5.6594,5.6622,5.6648,5.6743,5.6781,5.6335,5.6334,5.6333,5.6332,0,5.5193,5.5334,5.5455,5.5588,5.5677,5.5836,5.5865,5.5955,5.5946,5.5979,5.6174,5.6253,5.6391,5.6447,5.6441,5.6681,5.6646,5.659,5.6483,5.6694,5.6784,5.682,5.6347,5.6344,5.6341,5.6339,0,0,5.5519,5.5651,5.5695,5.5755,5.5866,5.5975,5.6132,5.6265,5.6341,5.644,5.6571,5.6761,5.6709,5.6786,5.6788,5.6897,5.7113,5.6828,5.683,5.6877,5.7381,5.7422,5.7464,5.7091,5.7098,5.7103,5.7372,0,5.5781,5.6054,5.6062,5.6313,5.6442,5.6401,5.6537,5.6621,5.6656,5.6772,5.6811,5.6944,5.6867,5.6912,5.7018,5.7064,5.7215,5.7045,5.7214,5.722,5.7188,5.7511,5.7555,5.7805,5.7407,5.7413,5.7418,0,5.6125,5.6231,5.6494,5.6584,5.6639,5.6761,5.6883,5.6994,5.7088,5.7105,5.719,5.7176,5.7336,5.7224,5.7445,5.733,5.7399,5.7433,5.7442,5.7458,5.7331,5.7535,5.7885,5.7922,5.7473,5.7468,5.7464,0,5.6334,5.6544,5.6727,5.678,5.689,5.6977,5.7028,5.7114,5.7193,5.73,5.7351,5.7476,5.7545,5.7642,5.7662,5.7578,5.7884,5.7773,5.7903,5.7903,5.7969,5.7965,5.8335,5.8015,5.8015,5.8014,5.8013,0,5.6627,5.6789,5.6823,5.6936,5.7116,5.7124,5.7302,5.7346,5.7423,5.7545,5.7518,5.7633,5.7652,5.7772,5.7789,5.7969,5.8,5.8019,5.8022,5.8022,5.8019,5.8067,5.805,5.8024,5.8022,5.802,5.8018,0,5.6892,5.6921,5.7118,5.7206,5.7232,5.7361,5.7436,5.7545,5.7576,5.773,5.7766,5.7816,5.7955,5.7984,5.815,5.8161,5.8375,5.8361,5.8343,5.8341,5.8469,5.8457,5.8883,5.8938,5.8583,5.8587,5.8589,0,5.7077,5.72,5.73,5.7378,5.7432,5.7559,5.7638,5.7651,5.7735,5.7849,5.7944,5.808,5.8189,5.8413,5.8465,5.8591,5.8579,5.872,5.8598,5.8593,5.858,5.8572,5.8584,5.8743,5.8747,5.875,5.8752,0,5.7401,5.7408,5.7523,5.7643,5.7738,5.7834,5.7924,5.799,5.8015,5.8111,5.8251,5.8335,5.8503,5.8638,5.8764,5.8817,5.879,5.879,5.8827,5.8827,5.8811,5.8821,5.8405,5.878,5.8778,5.8775,5.8774,5.8773,5.7631,5.7738,5.7824,5.7953,5.8021,5.8106,5.8212,5.8255,5.8372,5.8507,5.8508,5.8661,5.8751,5.8917,5.8977,5.9098,5.9054,5.9108,5.9121,5.9134,5.9145,5.8792,5.9121,5.9121,5.912,5.9119,5.9119,0,5.7953,5.8005,5.8123,5.825,5.8351,5.8314,5.8412,5.8499,5.8634,5.8719,5.8825,5.8987,5.9117,5.9178,5.9306,5.9391,5.9382,5.9425,5.9418,5.9431,5.9178,5.9132,5.943,5.943,5.943,5.943,5.943,5.943,5.8132,5.831,5.8328,5.854,5.8592,5.8741,5.88,5.8878,5.8945,5.9126,5.9233,5.9271,5.9346,5.948,5.9598,5.9612,5.9661,5.971,5.9718,5.9481,5.9449,5.9419,5.9376,5.972,5.9721,5.9961,5.9964,5.9965]},{"header":{"parameterUnit":"m.s-1","parameterCategory":1,"la1":30.2991,"la2":30.254,"lo1":-89.0895,"lo2":-89.0444,"dy":0.0017,"dx":0.0017,"nx":28,"ny":28,"refTime":"2024-07-08T09:00:00:Z","depth":0,"parameterNumber":3,"parameterNumberName":"V-component_of_WINDS"},"data":[0,0,0,0,0,0,0,0,0,0,0,0,0,0,0,0,0,0,0,0,0,0,0,0,0,0,0,0,0,0,0,0,0,0,0,0,0,0,0,0,0,0,0,0,0,0,0,0,0,0,0,0,0,0,0,0,0,0,0.69,0.6901,0,0.6917,0.6917,0.6917,0.6885,0.6884,0.6883,0.6882,0.69,0.6901,0.6903,0,0,0,0,0,0,0,0,0,0,0,0,0,0.6841,0.6842,0.69,0.6901,0.6901,0.6917,0.6917,0.6917,0.6885,0.6884,0.6883,0.6882,0.6899,0.6901,0.6903,0,0,0,0,0,0,0,0,0,0,0,0,0,0.6863,0.6843,0.69,0.6887,0.6886,0.6917,0.6917,0.6917,0.6886,0.6884,0.6882,0.6881,0.6899,0.6901,0.6903,0.6949,0,0,0.691,0.6911,0,0,0,0,0,0,0,0,0.6862,0.6866,0.6888,0.6888,0.6887,0.6897,0.6903,0.6928,0.6886,0.6886,0.6882,0.688,0.69,0.6902,0.6909,0.6949,0.695,0.691,0.6911,0.6912,0.6913,0,0,0,0,0,0,0,0.6861,0.6865,0.6907,0.6889,0.6888,0.688,0.6881,0.6907,0.6902,0.6886,0.6883,0.6886,0.6899,0.6907,0.6909,0.695,0.691,0.6912,0.6913,0.6914,0.7029,0.7031,0,0,0,0,0,0,0.6861,0.6864,0.6906,0.6907,0.687,0.6882,0.6884,0.6896,0.6901,0.6901,0.6887,0.6884,0.6904,0.6907,0.691,0.6964,0.6912,0.6914,0.6916,0.7027,0.7029,0.7031,0,0,0,0,0,0,0.686,0.6865,0.6906,0.6885,0.6889,0.6885,0.6898,0.6897,0.6904,0.6902,0.6901,0.6896,0.6903,0.6907,0.6939,0.6964,0.6915,0.6917,0.7025,0.7028,0.703,0.7072,0,0,0,0,0,0,0.6858,0.6865,0.6882,0.6885,0.6891,0.6935,0.69,0.6898,0.6908,0.6904,0.691,0.691,0.6902,0.6936,0.6941,0.6966,0.6919,0.7023,0.7026,0.703,0.7068,0.7076,0.7082,0,0,0,0,0,0.6856,0.6893,0.6883,0.6888,0.6912,0.6937,0.694,0.6929,0.691,0.6927,0.6926,0.691,0.696,0.694,0.6945,0.6971,0.7022,0.7026,0.7029,0.7065,0.7074,0.7082,0,0,0,0,0,0,0.6893,0.6893,0.6882,0.6921,0.6929,0.6931,0.6953,0.6939,0.6953,0.6949,0.6936,0.6938,0.6973,0.6975,0.6952,0.7015,0.6987,0.6993,0.7013,0.7021,0.7028,0.7027,0.6921,0,0,0,0,0,0.6905,0.6925,0.6924,0.6959,0.6963,0.6957,0.6968,0.6959,0.6967,0.697,0.6971,0.698,0.6997,0.7009,0.7025,0.7068,0.7069,0.7089,0.7095,0.7101,0.7106,0.7129,0.7138,0.7044,0.7044,0.7044,0,0,0.6932,0.6934,0.6948,0.6966,0.6971,0.6992,0.696,0.6984,0.6999,0.6974,0.7005,0.7006,0.7014,0.7052,0.7069,0.7055,0.7132,0.7106,0.711,0.7112,0.7134,0.7143,0.7151,0.7047,0.7046,0.7046,0,0,0.6991,0.6994,0.7024,0.703,0.7037,0.7033,0.704,0.7044,0.7044,0.7075,0.7056,0.7074,0.7104,0.7111,0.7119,0.718,0.7165,0.7185,0.7221,0.7244,0.7251,0.7257,0.728,0.7288,0.719,0.719,0.719,0,0.7023,0.7053,0.7041,0.7066,0.7075,0.7052,0.7082,0.7088,0.7101,0.7107,0.7091,0.7129,0.7133,0.7173,0.7188,0.7194,0.7202,0.7185,0.7251,0.7257,0.7263,0.7284,0.7293,0.7192,0.7192,0.7192,0.7192,0,0.7093,0.7114,0.7137,0.715,0.7161,0.7188,0.718,0.7193,0.7183,0.7181,0.7212,0.7216,0.7233,0.7241,0.7232,0.7279,0.7271,0.7253,0.7225,0.7275,0.7294,0.7302,0.7196,0.7195,0.7194,0.7194,0,0,0.7176,0.7181,0.719,0.7196,0.7203,0.7219,0.7245,0.7261,0.7273,0.7282,0.7304,0.733,0.7313,0.7322,0.7313,0.7333,0.7382,0.7313,0.7313,0.7326,0.7435,0.7449,0.7458,0.7371,0.7373,0.7374,0.7434,0,0.7235,0.728,0.727,0.7314,0.7334,0.7312,0.7335,0.7342,0.734,0.7356,0.7354,0.7373,0.735,0.7355,0.7373,0.7372,0.7403,0.7367,0.7392,0.7393,0.7392,0.7468,0.7483,0.754,0.7442,0.7443,0.7444,0,0.7311,0.7323,0.7369,0.7373,0.7381,0.7401,0.7415,0.7431,0.7438,0.7435,0.7445,0.7432,0.7458,0.7428,0.7464,0.744,0.7449,0.745,0.7452,0.7455,0.7422,0.7474,0.7558,0.7567,0.7456,0.7455,0.7454,0,0.7368,0.7396,0.7427,0.7433,0.7437,0.7452,0.7455,0.746,0.7471,0.7483,0.7489,0.7504,0.7512,0.7524,0.7516,0.7495,0.7553,0.7523,0.7552,0.7552,0.7566,0.7565,0.7653,0.7571,0.757,0.757,0.757,0,0.7436,0.7465,0.7453,0.7473,0.7505,0.7492,0.7525,0.7525,0.753,0.7549,0.7531,0.7549,0.7537,0.7554,0.7547,0.7578,0.7582,0.7581,0.7579,0.7583,0.7583,0.759,0.7586,0.7572,0.7572,0.7572,0.7571,0,0.7506,0.7499,0.7532,0.7533,0.7534,0.7558,0.756,0.7578,0.7574,0.7599,0.7604,0.7598,0.7618,0.761,0.7631,0.7626,0.7666,0.7658,0.7664,0.7662,0.7692,0.7689,0.7788,0.78,0.7709,0.7709,0.771,0,0.755,0.7572,0.7576,0.7587,0.7591,0.761,0.762,0.7608,0.762,0.7629,0.7647,0.7664,0.7678,0.771,0.7708,0.7724,0.7717,0.775,0.7719,0.7723,0.7719,0.7718,0.772,0.7757,0.7758,0.7759,0.776,0,0.7629,0.7625,0.764,0.7655,0.7667,0.7678,0.7687,0.7698,0.7686,0.77,0.772,0.773,0.7751,0.777,0.7783,0.7786,0.7771,0.7769,0.7777,0.7782,0.7784,0.7784,0.7682,0.7767,0.7767,0.7766,0.7766,0.7765,0.7688,0.7707,0.7713,0.7731,0.7736,0.7745,0.7762,0.7761,0.7777,0.7793,0.7785,0.7808,0.7814,0.7831,0.7836,0.7854,0.7841,0.7852,0.7854,0.7858,0.7862,0.7781,0.7856,0.7856,0.7855,0.7855,0.7855,0,0.7767,0.777,0.7786,0.78,0.7814,0.7798,0.7807,0.782,0.7841,0.7847,0.7861,0.7884,0.7901,0.79,0.7916,0.7931,0.7924,0.7935,0.7935,0.7936,0.7872,0.7864,0.794,0.794,0.794,0.794,0.794,0.794,0.781,0.7841,0.7837,0.7871,0.7873,0.7896,0.7902,0.791,0.7916,0.7942,0.7956,0.7955,0.7959,0.7975,0.799,0.7989,0.7997,0.801,0.8007,0.7948,0.794,0.7932,0.7925,0.8012,0.8012,0.8069,0.807,0.807]}]]